Volver al catálogo

COSMOS 448

ActivoMilitarLEO
NORAD 5551·PAYLOAD·🇷🇺 Russia

Lanzado Oct 13, 1971 desde Plesetsk Cosmodrome

Loading…

Próximos Pases (próximas 24 horas)

TLE

ActualizadoSource: Space-Track

Época: Sep 14, 2026, 08:39 UTC

1 05551U 71086E   26257.36102498 -.00000024  00000-0 -61350-4 0  9990
2 05551  74.0311  22.7416 0048644  57.9986 329.4768 12.46764356499584

Sigue COSMOS 448 en tiempo real con AllMySat

Download on the App Store